Temp
88 88 87 88 87 88 87 86 87 86 86 87 86 85 86 85 86 86 86 85 85 84 84 84 84 83 84 83 83 83 82 82 83 83 82 81 81 81 81 80 80 80
88 88 88 88 88 88 88 87 87 86 85 86 86 87 86 86 86 86 85 85 84 84 84 84 84 83 83 83 83 82 82 82 82 84 82 81 81 81 81 81 81 81
88 87 87 87 88 87 89 88 87 87 87 87 87 86 86 86 85 85 85 85 84 85 84 84 83 83 83 83 83 82 82 81 81 84 82 81 82 81 81 82 82 81
87 88 88 88 89 88 88 87 87 86 88 87 87 87 87 87 85 85 84 84 84 84 84 84 84 84 83 83 82 82 82 82 83 83 82 82 82 82 82 82 82 81
87 87 88 88 88 88 87 86 87 87 87 87 87 86 85 85 84 84 84 84 83 84 83 83 83 84 83 82 82 81 83 83 83 82 81 81 82 82 82 82 81 80
88 87 87 87 87 87 86 86 87 87 87 87 86 87 86 85 84 84 84 84 85 84 84 84 83 83 84 82 82 81 82 83 84 82 81 81 82 83 83 82 81 80
87 87 86 88 87 87 86 86 86 86 86 86 85 85 85 84 84 83 84 84 84 84 84 83 82 83 83 82 81 81 82 82 83 82 81 81 81 81 82 81 80 79
87 87 87 87 86 86 86 86 86 85 85 85 85 84 85 85 83 83 83 83 83 82 82 83 82 82 84 82 81 81 82 83 83 81 81 81 81 80 80 81 80 79
87 86 85 85 84 85 87 87 87 85 85 84 84 85 83 83 83 82 81 82 82 82 81 81 81 82 83 83 82 81 81 82 83 82 81 81 81 80 81 81 80 79
85 85 85 85 85 85 87 89 89 87 85 84 83 84 81 81 82 82 82 81 81 81 81 81 81 82 82 83 82 81 81 81 82 82 82 82 81 81 81 80 80 79
84 85 84 85 86 87 89 90 90 89 86 85 83 83 81 80 80 81 80 80 80 80 80 80 81 81 81 83 82 82 82 82 82 82 82 81 81 81 80 81 80 80
84 83 83 85 87 87 89 89 86 82 83 83 82 82 81 81 80 79 79 79 79 80 80 80 80 81 81 81 82 82 82 82 83 82 83 82 82 82 82 82 81 81
84 83 84 85 83 83 85 86 83 84 84 83 83 83 82 82 82 80 79 79 79 79 80 80 80 81 81 80 81 82 82 82 83 83 82 82 82 83 84 84 83 82
84 83 83 83 83 82 83 85 84 82 81 82 82 83 84 84 84 82 83 82 81 81 80 80 80 80 81 80 81 82 82 82 82 82 83 83 83 83 84 85 84 84
83 83 83 83 83 83 83 83 83 83 82 82 82 84 85 86 84 84 82 81 81 80 79 79 80 80 81 81 81 81 82 82 82 82 82 82 82 84 84 84 85 85
83 82 82 82 82 81 81 83 83 82 83 82 83 84 83 83 83 82 83 82 80 78 78 79 80 81 77 72 74 81 82 82 82 82 82 82 81 81 83 84 84 85
82 82 81 81 81 82 82 82 82 82 81 81 82 82 82 81 81 81 82 83 81 79 77 78 79 80 71 66 67 68 78 81 82 81 82 81 81 80 80 81 83 84
81 81 80 81 81 81 81 82 82 82 81 81 81 81 81 81 80 80 81 82 81 80 79 78 78 74 66 65 66 65 67 78 82 82 82 82 82 81 81 81 81 83
82 81 80 80 81 81 81 81 81 80 80 81 81 82 82 79 77 79 80 80 80 78 78 79 80 71 64 64 64 64 63 69 81 82 81 82 82 82 81 80 81 81
82 81 80 80 81 81 81 80 80 80 81 83 82 81 80 79 78 78 79 79 79 78 78 80 81 71 63 63 62 62 63 66 80 81 81 82 81 81 81 81 81 80
80 80 79 80 81 82 81 80 80 81 81 82 83 82 80 79 79 79 79 79 80 80 80 80 82 66 61 61 60 60 61 64 79 81 81 81 81 81 80 81 81 81
81 80 79 80 81 81 81 80 80 80 79 80 80 80 81 82 80 80 79 80 80 80 81 80 83 64 61 61 60 59 60 72 77 78 79 80 80 81 81 81 81 80
81 80 80 80 81 81 81 81 80 79 79 80 78 79 81 80 80 81 80 80 79 79 79 79 84 69 60 60 59 58 63 76 76 78 78 79 79 80 80 81 81 80
81 80 80 79 80 80 81 82 82 81 81 80 79 79 80 79 78 79 81 80 80 80 82 82 84 73 58 58 57 57 66 76 77 77 78 78 79 80 80 79 79 76
82 81 81 81 80 81 83 82 81 80 81 80 80 80 80 80 79 80 81 80 81 80 77 81 84 76 56 58 56 57 65 75 76 78 77 78 78 78 79 79 78 74
82 81 80 81 81 82 82 82 81 81 79 79 78 79 80 82 81 81 80 81 80 81 83 83 82 83 74 54 55 55 60 75 78 77 77 77 78 77 77 77 77 77
MSLP
1012.94 1013.18 1013.58 1013.86 1014.14 1014.34 1014.66 1015.06 1015.18 1015.46 1015.66 1015.74 1016.10 1016.22 1016.38 1016.46 1016.50 1016.74 1016.94 1017.06 1017.26 1017.38 1017.46 1017.54 1017.62 1017.78 1017.86 1018.02 1018.10 1018.22 1018.34 1018.42 1018.42 1018.42 1018.66 1018.78 1018.90 1018.98 1019.10 1019.14 1019.22 1019.26
1012.66 1012.86 1013.14 1013.42 1013.86 1014.02 1014.26 1014.50 1014.90 1015.18 1015.50 1015.66 1015.74 1015.90 1016.10 1016.30 1016.50 1016.62 1016.90 1017.06 1017.18 1017.34 1017.34 1017.46 1017.58 1017.70 1017.82 1017.82 1017.98 1018.18 1018.26 1018.30 1018.46 1018.14 1018.54 1018.70 1018.70 1018.74 1018.90 1018.90 1018.98 1018.94
1012.30 1012.66 1012.98 1013.42 1013.66 1013.94 1014.06 1014.18 1014.46 1014.82 1015.10 1015.34 1015.46 1015.74 1016.02 1016.10 1016.38 1016.54 1016.70 1016.90 1017.10 1017.18 1017.30 1017.38 1017.50 1017.58 1017.66 1017.66 1017.78 1017.94 1018.10 1018.22 1018.34 1018.06 1018.26 1018.50 1018.42 1018.58 1018.58 1018.58 1018.66 1018.78
1012.02 1012.26 1012.62 1012.94 1013.14 1013.54 1013.70 1014.06 1014.34 1014.58 1014.74 1015.14 1015.42 1015.50 1015.70 1015.86 1016.14 1016.46 1016.62 1016.78 1016.98 1017.14 1017.10 1017.22 1017.34 1017.38 1017.50 1017.58 1017.70 1017.82 1017.82 1017.98 1017.90 1017.90 1018.10 1018.18 1018.22 1018.22 1018.26 1018.30 1018.42 1018.54
1011.70 1012.06 1012.30 1012.54 1012.78 1013.06 1013.42 1013.90 1014.22 1014.42 1014.66 1014.86 1015.06 1015.26 1015.54 1015.82 1016.10 1016.30 1016.46 1016.66 1016.82 1016.98 1017.06 1017.14 1017.22 1017.30 1017.38 1017.50 1017.62 1017.82 1017.74 1017.86 1017.78 1017.90 1018.10 1018.22 1018.06 1018.10 1018.06 1018.14 1018.38 1018.54
1011.34 1011.66 1011.94 1012.30 1012.58 1012.94 1013.30 1013.62 1013.82 1014.02 1014.22 1014.50 1014.78 1014.82 1015.18 1015.50 1015.82 1015.98 1016.18 1016.38 1016.50 1016.70 1016.82 1016.94 1017.14 1017.18 1017.26 1017.46 1017.62 1017.74 1017.70 1017.70 1017.54 1017.78 1018.06 1018.18 1018.02 1017.78 1017.86 1017.98 1018.22 1018.38
1011.18 1011.46 1011.78 1011.94 1012.34 1012.62 1013.02 1013.22 1013.38 1013.50 1013.74 1013.90 1014.22 1014.58 1014.74 1015.18 1015.50 1015.70 1015.82 1016.06 1016.22 1016.42 1016.66 1016.78 1017.02 1017.14 1017.14 1017.30 1017.58 1017.70 1017.66 1017.62 1017.54 1017.70 1017.98 1017.98 1017.94 1017.94 1017.82 1017.90 1018.10 1018.22
1010.58 1010.74 1011.18 1011.54 1012.02 1012.34 1012.66 1012.78 1012.90 1013.18 1013.34 1013.62 1014.02 1014.18 1014.38 1014.74 1015.10 1015.30 1015.54 1015.70 1015.98 1016.26 1016.50 1016.66 1016.86 1017.06 1017.06 1017.18 1017.46 1017.58 1017.58 1017.38 1017.50 1017.66 1017.82 1017.86 1017.82 1017.94 1017.86 1017.82 1017.90 1018.06
1009.74 1010.34 1010.86 1011.54 1011.86 1011.98 1012.18 1012.34 1012.62 1012.90 1013.02 1013.38 1013.54 1013.74 1013.98 1014.30 1014.66 1014.94 1015.30 1015.50 1015.78 1016.02 1016.30 1016.54 1016.66 1016.82 1016.82 1016.94 1017.14 1017.34 1017.42 1017.30 1017.18 1017.34 1017.50 1017.62 1017.70 1017.70 1017.66 1017.62 1017.74 1017.82
1009.70 1010.22 1010.70 1011.10 1011.50 1011.62 1011.90 1011.98 1012.22 1012.58 1012.86 1013.18 1013.38 1013.46 1013.86 1014.06 1014.22 1014.54 1014.90 1015.30 1015.62 1015.82 1016.06 1016.26 1016.42 1016.54 1016.58 1016.62 1016.86 1017.02 1017.14 1017.18 1017.10 1017.14 1017.18 1017.26 1017.38 1017.42 1017.42 1017.54 1017.62 1017.66
1009.66 1010.14 1010.66 1011.02 1010.98 1010.94 1011.22 1011.58 1012.10 1012.66 1012.94 1013.22 1013.46 1013.54 1013.90 1014.34 1014.34 1014.34 1014.70 1015.06 1015.38 1015.54 1015.78 1015.98 1016.14 1016.26 1016.42 1016.46 1016.50 1016.62 1016.78 1016.82 1016.86 1016.90 1016.98 1017.06 1017.10 1017.14 1017.14 1017.18 1017.22 1017.22
1009.38 1009.82 1010.26 1010.38 1010.34 1010.26 1010.42 1010.70 1011.10 1011.50 1011.90 1012.14 1012.50 1012.98 1012.98 1013.10 1013.66 1014.10 1014.42 1014.82 1014.98 1015.18 1015.38 1015.62 1015.78 1015.98 1016.10 1016.22 1016.26 1016.34 1016.50 1016.54 1016.54 1016.58 1016.58 1016.66 1016.70 1016.70 1016.70 1016.70 1016.78 1016.82
1009.06 1009.46 1009.66 1009.54 1009.38 1009.62 1009.94 1010.30 1010.74 1010.82 1010.94 1011.34 1011.62 1012.14 1012.78 1012.90 1013.02 1013.58 1014.02 1014.42 1014.74 1014.94 1015.14 1015.34 1015.54 1015.70 1015.82 1015.94 1016.06 1016.14 1016.18 1016.30 1016.30 1016.22 1016.26 1016.34 1016.30 1016.22 1016.18 1016.14 1016.18 1016.26
1008.78 1008.82 1008.66 1008.46 1008.82 1009.34 1009.58 1009.82 1010.18 1010.62 1010.78 1011.02 1011.54 1012.10 1012.34 1012.38 1012.54 1013.06 1013.42 1013.82 1014.26 1014.58 1014.78 1014.94 1015.22 1015.42 1015.54 1015.66 1015.78 1015.82 1015.90 1015.94 1016.02 1016.10 1016.06 1016.02 1016.02 1015.94 1015.86 1015.78 1015.74 1015.70
1008.34 1008.22 1008.14 1008.42 1008.66 1008.90 1009.14 1009.38 1009.58 1009.90 1010.30 1010.58 1010.94 1011.34 1011.50 1011.70 1011.94 1012.42 1013.06 1013.50 1013.82 1014.22 1014.54 1014.70 1014.90 1015.06 1015.14 1015.26 1015.50 1015.62 1015.62 1015.74 1015.78 1015.82 1015.86 1015.90 1015.82 1015.70 1015.58 1015.54 1015.42 1015.30
1007.90 1008.02 1008.26 1008.38 1008.66 1008.66 1008.82 1009.06 1009.38 1009.74 1010.02 1010.26 1010.50 1010.78 1011.22 1011.54 1011.90 1012.26 1012.70 1013.06 1013.50 1013.94 1014.30 1014.50 1014.58 1014.58 1014.70 1014.94 1015.06 1015.22 1015.34 1015.42 1015.42 1015.46 1015.54 1015.58 1015.66 1015.66 1015.54 1015.30 1015.18 1015.02
1007.62 1007.86 1008.06 1008.26 1008.22 1008.38 1008.62 1008.86 1009.18 1009.54 1009.86 1010.02 1010.18 1010.54 1011.02 1011.46 1011.90 1012.34 1012.58 1012.74 1013.06 1013.54 1013.98 1014.14 1014.18 1014.18 1014.38 1014.70 1014.98 1015.22 1015.34 1015.30 1015.30 1015.26 1015.26 1015.38 1015.42 1015.54 1015.54 1015.30 1014.98 1014.82
1007.34 1007.58 1007.94 1007.82 1007.98 1008.22 1008.38 1008.62 1008.94 1009.26 1009.58 1009.82 1010.02 1010.38 1010.78 1011.14 1011.74 1012.14 1012.42 1012.58 1012.74 1013.02 1013.42 1013.62 1013.78 1013.82 1014.14 1014.46 1014.74 1014.98 1015.26 1015.22 1014.98 1014.94 1014.98 1014.98 1015.02 1015.06 1015.02 1014.98 1014.94 1014.78
1006.90 1007.10 1007.54 1007.74 1007.70 1007.78 1008.22 1008.58 1008.82 1009.10 1009.42 1009.74 1009.90 1009.90 1010.30 1010.86 1011.18 1011.54 1012.02 1012.30 1012.58 1012.94 1013.18 1013.26 1013.38 1013.42 1013.82 1014.14 1014.42 1014.66 1014.90 1015.10 1014.74 1014.62 1014.66 1014.70 1014.66 1014.66 1014.70 1014.78 1014.74 1014.70
1006.50 1006.78 1007.26 1007.38 1007.34 1007.58 1007.94 1008.22 1008.50 1008.78 1008.86 1009.02 1009.30 1009.62 1010.06 1010.50 1010.90 1011.30 1011.62 1012.10 1012.34 1012.62 1012.86 1012.86 1012.94 1013.02 1013.46 1013.74 1014.02 1014.22 1014.42 1014.74 1014.46 1014.34 1014.34 1014.30 1014.34 1014.34 1014.38 1014.38 1014.34 1014.42
1006.38 1006.70 1006.98 1007.10 1007.22 1007.38 1007.58 1007.90 1008.14 1008.46 1008.70 1008.82 1009.06 1009.50 1009.94 1010.38 1010.74 1011.18 1011.66 1011.82 1012.02 1012.18 1012.34 1012.50 1012.46 1012.66 1013.10 1013.34 1013.54 1013.74 1013.98 1014.50 1014.22 1014.06 1013.98 1013.98 1013.94 1013.94 1014.02 1014.02 1014.02 1013.98
1006.22 1006.54 1006.70 1006.90 1007.10 1007.18 1007.42 1007.82 1008.10 1008.54 1008.70 1008.86 1009.14 1009.58 1009.94 1010.38 1010.74 1010.78 1011.62 1011.70 1011.70 1011.86 1012.02 1012.22 1011.98 1012.30 1012.70 1012.94 1013.14 1013.46 1014.02 1014.26 1014.02 1014.02 1013.94 1013.78 1013.70 1013.66 1013.66 1013.62 1013.58 1013.62
1005.90 1006.22 1006.50 1006.70 1006.86 1007.06 1007.30 1007.54 1007.90 1008.34 1008.38 1008.54 1009.14 1009.42 1009.78 1010.22 1010.62 1010.82 1011.22 1011.30 1011.54 1011.70 1011.98 1012.10 1011.86 1011.94 1012.26 1012.50 1012.86 1013.38 1013.90 1013.70 1013.66 1013.62 1013.62 1013.62 1013.54 1013.42 1013.34 1013.26 1013.26 1013.26
1005.66 1005.94 1006.30 1006.54 1006.70 1006.90 1006.98 1007.10 1007.38 1007.74 1008.06 1008.14 1008.86 1009.46 1009.86 1010.06 1010.42 1010.90 1010.82 1010.94 1011.18 1011.50 1011.66 1011.86 1011.58 1011.46 1011.86 1012.26 1012.66 1013.18 1013.26 1013.30 1013.34 1013.42 1013.38 1013.38 1013.26 1013.14 1013.02 1013.06 1013.06 1013.26
1005.30 1005.62 1005.98 1006.26 1006.50 1006.54 1006.58 1006.90 1007.22 1007.66 1007.86 1008.02 1008.54 1009.02 1009.34 1009.66 1010.02 1010.54 1010.74 1010.70 1010.94 1011.26 1011.42 1011.50 1011.30 1011.22 1011.66 1011.98 1012.42 1012.86 1013.06 1013.02 1013.10 1013.10 1013.22 1013.14 1013.10 1013.02 1012.86 1012.86 1012.90 1013.02
1004.94 1005.34 1005.66 1005.94 1006.14 1006.30 1006.46 1006.78 1007.10 1007.42 1007.74 1008.10 1008.50 1008.70 1009.06 1009.42 1009.82 1010.22 1010.58 1010.46 1010.62 1011.06 1011.10 1011.14 1011.18 1011.14 1011.34 1011.86 1012.22 1012.58 1012.82 1012.74 1012.66 1012.90 1013.02 1012.86 1012.78 1012.70 1012.74 1012.70 1012.70 1012.70
Wind_Speed
12 11 11 11 11 10 9 9 8 8 9 8 7 7 7 7 7 7 7 6 6 7 7 7 7 6 6 5 5 5 4 4 4 3 4 3 3 4 4 3 4 4
13 12 10 10 9 9 9 9 9 8 8 8 7 6 7 7 7 7 7 7 7 7 7 7 7 6 6 5 5 5 4 4 4 3 3 4 3 4 4 4 5 5
13 13 12 11 10 11 11 9 9 8 8 8 8 7 6 7 7 7 7 7 7 7 7 6 7 6 6 5 5 5 5 5 5 4 4 4 4 4 4 4 5 6
13 13 11 11 10 10 10 9 9 8 7 8 8 7 6 6 7 7 7 7 6 6 6 7 7 6 6 6 6 5 5 5 5 4 4 4 5 5 5 5 5 5
13 12 11 10 9 9 9 9 9 8 8 7 7 7 7 7 7 7 7 7 7 7 7 7 7 7 6 6 6 5 5 5 5 5 5 5 4 5 5 5 5 6
12 11 11 10 10 10 10 10 10 9 9 9 8 7 8 8 8 8 8 8 8 8 8 8 7 7 7 6 6 6 5 5 5 5 5 5 5 4 4 4 5 6
13 12 12 11 11 11 9 9 9 9 9 8 8 8 8 9 9 9 9 8 8 8 8 7 7 7 6 6 6 6 6 5 5 5 5 5 5 5 5 5 5 6
14 13 13 11 12 11 11 11 11 10 10 10 10 9 9 9 10 9 9 9 9 8 8 8 7 7 7 6 6 7 7 6 6 6 7 7 6 6 6 6 6 7
16 14 13 13 13 12 14 13 12 11 10 11 11 10 10 10 10 9 9 9 9 8 8 8 8 8 8 8 7 8 8 7 7 7 7 7 7 8 8 7 8 8
14 13 15 16 15 12 14 13 12 11 10 10 10 9 9 9 10 10 9 9 9 9 9 9 9 9 9 9 8 8 8 9 9 8 8 8 8 9 9 8 9 9
15 14 16 15 15 14 15 14 11 8 7 9 9 9 8 7 8 9 9 10 10 10 10 10 10 9 9 9 8 8 9 9 9 9 9 9 10 10 10 10 10 10
15 15 16 16 16 15 17 16 13 13 14 13 13 13 13 13 12 10 9 10 10 10 10 10 9 9 10 10 10 9 9 10 9 9 10 10 10 10 10 10 9 10
15 15 14 16 16 13 13 14 14 15 14 14 14 14 13 12 12 11 9 9 9 9 10 10 10 10 9 9 10 10 10 10 10 10 10 9 10 10 10 10 10 10
13 14 16 17 14 13 14 15 15 13 12 11 10 12 12 13 12 12 11 11 11 10 10 9 9 10 10 10 10 10 10 10 10 10 10 10 10 10 10 10 10 10
14 14 14 13 13 14 14 15 15 15 13 13 13 13 12 13 12 12 11 11 10 9 9 9 9 9 9 9 10 11 10 10 10 10 10 10 10 10 10 10 10 10
17 13 12 12 13 14 15 14 13 13 14 14 14 14 12 11 11 11 11 12 11 10 9 9 9 8 9 11 10 9 9 8 9 9 10 10 10 10 10 10 11 10
17 16 14 15 15 14 14 14 14 12 13 14 13 13 12 11 10 11 11 11 11 10 10 9 9 9 11 11 11 10 9 10 9 8 9 10 10 10 10 10 10 10
16 16 16 16 15 14 14 13 12 12 13 13 12 13 11 10 10 10 10 10 9 10 10 9 9 10 12 13 12 12 10 9 10 9 9 9 10 10 9 9 10 10
16 16 17 17 15 14 12 11 12 13 12 12 13 13 12 11 11 11 10 10 9 9 9 9 9 10 14 14 13 12 13 11 10 10 10 10 10 10 10 10 10 10
15 17 17 18 17 13 13 14 14 14 14 13 12 12 12 11 10 11 10 10 9 9 9 9 10 10 14 14 14 14 14 12 10 12 11 11 11 10 10 11 11 11
15 16 17 17 17 14 13 14 14 15 13 12 11 12 12 10 11 10 8 9 10 10 9 9 8 11 14 15 15 15 14 12 10 11 11 10 10 11 11 12 12 11
15 17 16 15 16 17 14 13 15 16 12 10 8 8 8 9 8 7 8 9 9 9 9 9 8 14 15 16 15 13 11 8 9 10 11 11 11 11 12 11 11 12
15 15 15 14 15 16 18 17 17 16 12 10 10 10 11 10 8 9 10 9 9 8 8 8 8 12 16 16 14 12 10 9 9 9 10 11 11 12 12 12 10 10
14 14 14 13 14 16 16 16 15 14 12 10 11 11 10 10 8 7 8 8 8 7 8 9 10 9 15 14 13 14 12 8 7 8 9 9 10 10 10 10 11 10
13 13 13 13 14 15 14 15 15 13 11 9 9 10 9 8 9 10 9 7 6 7 6 8 10 6 14 13 13 14 11 7 7 8 8 9 8 10 10 9 9 8
12 12 12 12 12 12 12 13 11 10 9 9 9 10 10 9 10 11 10 7 4 3 5 7 7 7 6 12 13 13 13 8 7 8 9 9 9 10 9 9 9 9
Wind_Direction
203 205 207 208 211 220 214 211 204 208 220 220 211 207 204 200 203 197 201 200 202 209 199 199 200 204 206 207 206 214 218 220 227 210 216 229 238 238 237 228 229 243
200 200 199 204 208 211 208 209 208 198 201 206 211 206 200 196 194 197 198 202 201 208 201 201 203 206 205 204 198 209 211 213 223 198 217 219 234 240 240 238 241 239
198 197 195 192 197 195 191 193 195 194 207 214 214 206 200 192 194 194 198 203 204 209 202 206 204 204 204 206 200 207 208 212 219 214 212 226 233 234 243 245 246 243
198 196 194 193 194 189 187 186 187 194 206 219 211 200 196 194 194 192 199 202 210 213 210 207 208 203 202 203 204 211 209 212 216 223 222 227 231 241 245 243 243 249
194 192 192 191 189 184 181 185 192 191 200 205 204 197 194 192 193 197 201 201 209 213 211 211 204 209 202 205 205 221 214 216 209 215 224 229 235 238 251 250 251 255
187 186 184 183 180 179 185 188 192 194 198 201 198 194 192 190 197 204 203 205 206 213 216 208 205 209 208 206 210 220 221 226 204 207 221 233 244 241 251 255 261 260
179 180 181 178 179 182 185 188 188 191 194 198 188 195 191 190 196 203 205 207 214 214 216 212 208 212 209 207 211 215 220 228 227 217 229 238 241 249 250 254 261 264
182 181 177 176 176 176 186 188 188 187 186 186 189 189 188 191 194 198 206 206 209 211 211 214 210 216 213 208 211 217 221 218 224 226 232 240 249 252 250 250 251 256
186 179 174 185 179 181 192 189 188 188 185 186 187 185 183 190 192 197 201 207 206 204 206 209 214 215 215 215 215 220 225 230 230 230 235 244 246 249 255 257 257 259
178 171 174 179 183 185 197 196 195 191 183 187 187 188 182 184 188 193 199 201 202 203 205 209 212 216 218 217 220 223 228 233 236 240 246 249 254 259 260 258 260 261
172 168 173 183 186 188 194 193 192 193 192 196 194 186 165 185 188 193 196 198 203 205 205 209 214 217 219 222 221 225 232 237 241 244 247 250 255 260 262 263 261 259
173 168 174 183 190 193 193 192 174 177 185 194 187 185 185 186 181 189 192 200 206 206 207 209 214 220 222 223 226 228 232 239 244 246 250 253 257 258 258 257 257 257
172 167 174 188 192 188 185 183 178 195 194 191 189 189 188 191 183 187 190 199 203 204 207 209 213 219 222 222 229 235 239 242 247 250 251 255 257 257 257 258 255 251
169 166 181 191 187 183 186 186 186 195 195 183 178 190 196 195 189 187 196 199 204 204 205 207 212 218 221 225 231 236 239 242 246 252 255 254 253 254 257 257 254 249
181 181 190 188 184 188 192 192 191 193 192 185 180 191 199 198 192 191 197 198 198 200 197 201 214 219 223 225 227 232 239 247 249 250 249 250 252 253 252 251 252 250
197 188 189 194 194 198 198 199 196 193 193 189 187 192 190 190 192 194 198 195 189 189 193 203 215 222 221 217 224 234 240 248 249 248 250 251 252 253 255 251 249 252
199 198 193 197 201 203 203 201 197 195 194 191 186 187 187 182 187 192 202 201 194 191 197 204 214 222 205 189 203 227 246 256 257 253 250 250 250 251 255 259 260 255
192 197 202 202 203 206 206 204 198 196 195 191 185 180 181 180 184 192 203 204 198 197 201 203 209 215 187 188 201 211 220 241 250 252 251 252 251 253 256 259 258 259
193 201 208 210 207 206 202 202 202 198 193 191 190 183 178 178 173 186 199 201 197 195 202 207 219 200 184 189 197 203 210 222 242 248 251 252 256 255 259 261 263 263
195 206 208 213 212 203 200 205 204 202 196 193 191 184 185 182 181 193 196 195 197 200 205 213 225 187 180 187 196 200 207 209 237 241 245 252 255 259 258 259 260 263
200 206 212 215 216 207 203 204 205 211 196 193 192 189 186 184 189 188 197 201 200 205 208 212 222 178 181 189 199 202 203 202 235 239 246 250 251 253 256 258 262 261
202 207 212 215 215 214 209 207 212 214 192 184 181 177 182 186 191 178 207 209 203 204 214 218 220 175 186 197 203 203 185 206 229 241 249 252 253 256 260 262 260 262
207 210 213 215 215 216 216 216 217 214 196 184 184 192 187 187 192 194 204 204 200 208 218 231 244 181 189 198 201 180 173 217 222 234 241 247 255 262 263 262 261 257
206 210 213 215 216 218 218 217 215 214 203 183 184 186 190 185 179 206 204 194 200 216 219 237 246 199 182 193 193 175 195 212 230 235 242 248 258 261 263 264 262 245
207 209 214 217 220 220 218 213 209 205 198 180 181 186 191 179 181 204 212 195 194 217 232 249 264 213 164 183 178 174 190 217 231 243 249 257 259 263 262 266 266 234
204 208 214 219 221 220 218 213 204 197 187 185 188 193 196 200 198 206 197 182 164 231 238 248 264 283 175 169 164 170 186 210 227 242 257 262 267 270 270 259 254 258